Regional Weather Roundup
Issued by NWS

Home | Current Version | Previous Version | Graphics & Text | Print | Product List | Glossary On
Versions: 1 2 3 4 5 6 7 8 9 10 11 12 13 14 15 16 17 18 19 20 21 22 23 24 25 26 27 28 29 30 31 32 33 34 35 36 37 38 39 40 41 42 43 44 45 46 47 48 49 50
000
ASUS45 KABQ 281110
RWRNM
WEATHER ROUNDUP FOR NEW MEXICO
NATIONAL WEATHER SERVICE ALBUQUERQUE NM
400 AM MST SAT FEB 28 2015

NOTE: "FAIR" MEANS FEW OR NO CLOUDS BELOW 12,000 FEET AGL WITH NO
       SIGNIFICANT WEATHER OR OBSTRUCTIONS TO VISION.

      THIS PRODUCT IS RELEASED AS TWO VERSIONS.  ONE VERSION NEAR
      THE TOP OF THE HOUR CONTAINING PRELIMINARY DATA FROM ALBUQUERQUE
      AND OTHER STATIONS.  A FINAL VERSION WITH ADDITIONAL DATA IS
      ISSUED ABOUT 10 MINUTES AFTER THE HOUR.

NMZ501-503-504-510>518-281200-
NORTHWEST PLATEAU/NORTHCENTRAL MOUNTAINS

CITY           SKY/WX    TMP DP  RH WIND       PRES   REMARKS
FARMINGTON     CLOUDY    29  27  92 E8        29.76F WCI  21
LOS ALAMOS     LGT SNOW  14  14 100 SW6       29.83R WCI   5
SANTA FE       LGT SNOW  16  11  80 S14       29.86S VSB 3/4 WCI   2
TAOS           CLOUDY    16  10  79 CALM      29.83S
ANGEL FIRE     LGT SNOW  22  18  85 SW6       29.78S WCI  15

$$
NMZ402-403-502-505>509-281200-
WESTCENTRAL MOUNTAINS/SOUTHWEST MOUNTAINS

CITY           SKY/WX    TMP DP  RH WIND       PRES   REMARKS
GALLUP         LGT SNOW  32  30  93 CALM      29.76S FOG
GRANTS         LGT SNOW  24  23  95 SE10      29.82S WCI  13
SILVER CITY    CLEAR     30  23  74 W3        29.90S

$$
NMZ407-409-411-412-281200-
SOUTHERN DESERTS

CITY           SKY/WX    TMP DP  RH WIND       PRES   REMARKS
LORDSBURG      FAIR      34  23  64 S12       29.86S WCI  25
DEMING         CLEAR     27  21  78 NE8       29.91S WCI  19
LAS CRUCES     CLEAR     28  23  80 S10       29.93R WCI  19
HOLLOMAN AFB   MOCLDY    24  20  83 N5        29.96S WCI  18
ALAMOGORDO     PTCLDY    27  21  80 N5        29.97S WCI  21
T OR C         CLOUDY    32  28  85 SW3       29.87F

$$
NMZ519>523-281200-
CENTRAL VALLEYS/CENTRAL HIGHLANDS

CITY           SKY/WX    TMP DP  RH WIND       PRES   REMARKS
ALBUQUERQUE    LGT SNOW  19  16  88 N12       29.89S VSB 1   WCI   7
DOUBLE EAGLE   LGT SNOW  19  16  89 NE8       29.87F WCI   8
MORIARTY ARPT  LGT SNOW  14  11  87 S8        29.90S WCI   3
CLINES CORNERS LGT SNOW  11   7  84 SE12      29.82F FOG     WCI  -3
BELEN          CLOUDY    24  23  98 N3        29.89S
SOCORRO          N/A     26  24  92 S3        29.90S

$$
NMZ524>526-539-540-281200-
SOUTHCENTRAL MOUNTAINS

CITY           SKY/WX    TMP DP  RH WIND       PRES   REMARKS
RUIDOSO        FOG       12   9  85 CALM      29.90F VSB 1/2

$$
NMZ527>531-281200-
NORTHEAST HIGHLANDS/NORTHEAST PLAINS

CITY           SKY/WX    TMP DP  RH WIND       PRES   REMARKS
LAS VEGAS      LGT SNOW   8   4  83 S17       29.83F FOG     WCI -10
RATON          LGT SNOW   5   3  91 S6        29.88R FOG     WCI  -6
CLAYTON        FLURRIES  13   9  84 S22       29.96S WCI  -6

$$
NMZ532>537-281200-
EASTCENTRAL PLAINS

CITY           SKY/WX    TMP DP  RH WIND       PRES   REMARKS
TUCUMCARI      CLOUDY    15  11  83 S10       30.07S WCI   2
CANNON AFB     LGT SNOW  12  10  89 S5        30.07S FOG     WCI   4
CLOVIS AIRPORT CLOUDY    12   9  85 S6        30.07F WCI   3

$$
NMZ028-029-538-281200-
SOUTHEAST PLAINS

CITY           SKY/WX    TMP DP  RH WIND       PRES   REMARKS
ROSWELL        CLOUDY    20  18  92 SE14      30.09S FOG     WCI   7
ARTESIA        CLOUDY    21  21 100 SE10      30.12S WCI  10
CARLSBAD       CLOUDY    22  19  89 E12       30.12R FOG     WCI  10
HOBBS          CLOUDY    18  18 100 E8        30.13S FOG     WCI   7


$$



USA.gov is the U.S. government's official web portal to all federal, state and local government web resources and services.